Home   Weather   Aqtobe   Past weeks
Flag for Kazakhstan

Past Weather in Aqtobe, Kazakhstan — Yesterday and Last 2 Weeks

Currently: -17 °F. Passing clouds. (Weather station: Aktjubinsk, Kazakhstan). See more current weather

Past Weather in Aqtobe — Graph

°F

Aqtobe Temperature Yesterday

Maximum temperature yesterday: 5 °F (at 2:00 pm)
Minimum temperature yesterday: -17 °F (at 7:30 am)
Average temperature yesterday: -4 °F

High & Low Weather Summary for the Past Weeks

 TemperatureHumidityPressure
High37 °F (Nov 24, 11:00 am)100% (Nov 23, 6:00 pm)30.89 "Hg (Nov 23, 6:00 pm)
Low-18 °F (Dec 8, 6:00 am)25% (Nov 30, 4:00 pm)29.80 "Hg (Nov 24, 12:00 pm)
Average13 °F70%30.54 "Hg
* Reported Nov 23 7:00 am — Dec 8 7:00 am, Aqtobe. Weather by CustomWeather, © 2022

Note: Actual official high and low records may vary slightly from our data, if they occured in-between our weather recording intervals... More about our weather records

Aqtobe Weather History for the Previous 24 Hours

Scroll right to see more
 ConditionsComfort  
Time TempWeatherWind HumidityBarometerVisibility
7:00 am
Thu, Dec 8
-18 °FPassing clouds.No wind69%30.72 "HgN/A
6:30 am-17 °FPassing clouds.No wind76%30.72 "HgN/A
6:00 am-18 °FClear.1 mph75%30.72 "Hg10 mi
4:30 am-17 °FClear.No wind69%30.72 "Hg10 mi
4:00 am-17 °FClear.No wind76%30.72 "Hg10 mi
3:30 am-17 °FClear.No wind76%30.72 "Hg10 mi
3:00 am-17 °FClear.1 mph76%30.72 "Hg10 mi
2:30 am-15 °FClear.No wind76%30.72 "Hg10 mi
2:00 am-15 °FClear.1 mph76%30.72 "Hg10 mi
1:30 am-15 °FClear.No wind76%30.69 "Hg10 mi
1:00 am-15 °FPassing clouds.No wind76%30.69 "HgN/A
12:30 am-13 °FPassing clouds.No wind76%30.69 "Hg4 mi
12:00 am-13 °FIce fog.3 mph83%30.69 "Hg1 mi
11:30 pm
Wed, Dec 7
-11 °FClear.1 mph84%30.72 "Hg10 mi
11:00 pm-13 °FClear.3 mph76%30.69 "Hg10 mi
10:30 pm-8 °FClear.No wind84%30.69 "Hg10 mi
10:00 pm-4 °FClear.No wind84%30.69 "Hg10 mi
9:30 pm-4 °FClear.No wind84%30.72 "Hg10 mi
9:00 pm-4 °FClear.6 mph84%30.72 "Hg10 mi
8:30 pm-2 °FClear.6 mph77%30.72 "Hg10 mi
8:00 pm-2 °FClear.6 mph77%30.72 "Hg10 mi
7:30 pm0 °FClear.8 mph78%30.72 "Hg10 mi
7:00 pm0 °FClear.6 mph78%30.72 "Hg10 mi
6:30 pm0 °FClear.1 mph78%30.72 "Hg10 mi
6:00 pm1 °FClear.3 mph78%30.72 "Hg10 mi
5:30 pm3 °FClear.3 mph72%30.69 "Hg10 mi
5:00 pm3 °FSunny.6 mph72%30.69 "Hg10 mi
4:00 pm5 °FSunny.6 mph72%30.69 "Hg10 mi
3:30 pm5 °FPassing clouds.6 mph66%30.69 "HgN/A
3:00 pm5 °FPassing clouds.3 mph66%30.69 "HgN/A
2:30 pm5 °FPassing clouds.1 mph66%30.72 "HgN/A
2:00 pm5 °FPassing clouds.1 mph66%30.72 "HgN/A
1:30 pm3 °FSunny.No wind60%30.72 "Hg10 mi
1:00 pm0 °FSunny.1 mph71%30.72 "Hg10 mi
12:30 pm0 °FSunny.1 mph65%30.72 "Hg10 mi
12:00 pm0 °FSunny.1 mph65%30.72 "Hg10 mi
11:30 am-4 °FSunny.1 mph71%30.72 "Hg10 mi
11:00 am-8 °FScattered clouds.1 mph77%30.72 "Hg6 mi
10:30 am-9 °FScattered clouds.No wind77%30.72 "HgN/A
10:00 am-11 °FSunny.No wind76%30.72 "Hg10 mi
9:30 am-15 °FSunny.1 mph76%30.72 "Hg10 mi
9:00 am-15 °FSunny.1 mph76%30.72 "Hg10 mi
8:30 am-15 °FClear.1 mph76%30.72 "Hg10 mi
8:00 am-15 °FClear.1 mph83%30.72 "Hg10 mi
Weather by CustomWeather, © 2022

See weather overview